Theta_e
307 310 310 309 308 307 308 309 309 308 307 307 307 306 305 304 304 303 303 303 302 302 302 306 306 306 310 314 317 323 326 326 324 321 325 329 329 326 328 326 327 325 322 321
310 310 307 306 307 308 308 309 309 308 307 307 307 307 305 304 303 302 302 302 301 301 300 301 303 304 306 309 312 316 319 327 327 325 324 327 326 325 328 326 327 327 325 322
310 308 306 307 308 309 309 309 309 309 308 306 307 308 307 305 304 303 301 301 300 299 300 299 301 302 304 305 308 312 315 321 324 326 327 328 326 326 327 324 325 325 325 325
308 306 307 308 308 308 310 307 307 308 309 311 306 311 308 307 306 304 302 301 300 299 299 299 299 301 302 303 304 306 308 312 320 322 324 326 327 326 324 323 323 324 324 323
308 308 308 308 307 307 309 306 306 308 309 308 308 310 308 306 307 305 302 300 299 299 298 298 298 298 300 301 303 304 305 307 311 320 322 323 325 327 325 326 326 324 325 322
304 302 306 307 306 305 305 305 303 304 307 311 307 308 308 308 306 304 302 300 299 298 297 298 298 297 298 300 301 302 303 304 305 311 319 322 323 324 325 325 326 325 326 324
303 304 303 304 307 306 307 306 313 313 312 312 304 307 308 306 303 302 301 300 299 298 298 298 297 297 296 298 300 301 302 302 303 304 310 317 321 322 323 325 324 325 325 325
306 311 303 303 305 306 306 306 310 314 312 310 304 309 308 304 301 300 300 299 299 298 298 298 297 295 295 296 299 300 300 302 303 303 304 308 317 320 322 323 324 324 326 326
306 306 301 303 304 305 307 308 306 307 302 305 306 305 305 303 303 301 300 299 298 298 297 297 296 295 295 297 298 300 300 301 303 303 304 304 307 315 320 321 322 323 323 324
302 307 299 301 302 304 307 306 308 307 310 311 309 306 308 306 304 303 301 299 299 298 297 296 295 297 297 297 298 299 300 302 302 302 303 304 305 306 313 318 321 322 322 322
305 302 305 301 305 305 306 306 305 306 306 309 309 309 303 304 303 302 301 299 299 298 296 296 295 297 297 297 298 299 299 301 303 303 303 304 306 306 306 311 317 320 321 321
302 302 305 304 301 299 303 305 306 307 306 305 305 308 303 303 302 301 301 299 298 297 295 295 295 297 298 297 298 298 299 301 302 302 303 305 306 308 312 310 311 314 319 320
302 302 307 305 304 303 304 305 306 305 304 304 308 310 301 301 301 300 300 299 298 296 295 295 295 296 297 297 297 298 299 299 301 302 304 306 307 309 311 313 316 318 320 320
300 298 302 305 305 303 302 302 305 305 306 305 305 307 304 302 301 300 300 299 297 296 295 294 294 295 295 296 297 296 298 299 300 302 304 305 307 310 312 312 315 317 318 318
301 300 295 297 298 298 300 301 302 306 306 305 303 300 303 302 301 300 300 299 298 297 295 295 294 294 295 296 294 295 295 298 299 301 303 304 305 307 310 313 315 316 316 317
299 299 295 296 294 298 299 300 300 300 303 305 305 305 304 301 301 298 301 300 299 297 296 295 294 294 294 295 295 294 294 295 297 300 301 301 302 306 306 307 310 311 310 311
299 298 297 301 291 292 302 299 300 303 303 304 305 306 303 302 300 300 301 300 300 298 296 295 295 294 294 294 295 294 293 294 296 297 299 300 301 303 304 304 307 306 305 305
298 297 296 299 296 306 304 299 300 303 303 303 303 304 302 302 301 301 301 300 300 299 296 295 295 294 294 294 294 294 294 294 295 295 296 295 296 298 300 301 303 298 299 296
297 297 296 299 298 301 300 298 302 302 308 303 303 304 303 301 301 302 302 301 301 300 296 296 295 294 294 294 293 294 294 294 294 294 294 295 295 293 295 295 295 294 294 295
296 296 297 294 300 304 302 301 300 301 308 304 302 303 303 301 305 305 300 302 301 300 296 296 295 294 294 294 293 293 293 293 294 294 293 293 293 293 294 294 294 294 294 294
297 297 298 296 300 300 298 301 300 307 308 303 302 303 301 303 304 299 298 297 298 297 296 296 295 295 294 294 293 293 293 293 293 293 293 293 293 293 294 293 293 293 293 293
297 298 296 294 297 301 294 300 305 306 304 304 304 304 303 303 303 302 298 297 296 296 296 296 295 295 294 294 293 293 293 293 293 293 292 293 293 293 293 292 292 292 292 292
299 298 299 299 300 296 296 303 304 304 304 305 305 305 304 304 303 302 299 298 297 296 296 296 295 295 295 294 294 293 293 293 293 293 292 292 292 292 292 292 292 292 292 292
291 292 297 294 299 295 297 299 302 304 304 305 305 305 304 304 304 303 301 299 298 297 296 295 295 295 295 295 294 294 293 293 293 292 292 292 292 292 292 292 292 292 292 292
294 292 295 295 295 295 297 297 300 300 300 302 303 304 304 304 304 304 302 301 299 298 297 295 295 295 295 295 295 294 294 293 293 292 292 292 292 292 292 292 292 292 292 292
291 295 298 302 299 302 301 302 302 301 301 301 299 300 302 303 304 304 302 300 300 299 298 297 295 294 295 295 295 295 294 294 293 293 292 292 293 292 292 292 292 292 292 292
Wind_Speed
9 11 11 10 6 2 2 1 4 2 5 5 9 9 9 13 18 19 18 18 18 17 15 8 9 8 6 3 7 16 20 20 25 19 22 29 26 28 40 29 32 26 24 23
4 11 8 3 5 3 4 2 5 1 6 2 5 7 6 13 14 16 16 17 18 16 14 12 10 8 7 5 3 6 14 20 22 24 21 23 18 24 34 33 31 32 26 26
9 4 5 2 8 2 4 7 6 3 5 1 4 4 3 2 8 13 16 15 16 17 18 18 15 13 9 6 5 5 5 12 16 23 26 22 21 16 20 24 24 25 29 35
5 5 4 4 4 7 3 6 5 4 4 2 1 0 6 1 1 12 16 17 17 18 18 18 19 16 13 10 8 6 7 6 11 15 19 18 21 22 21 25 29 22 22 22
2 5 6 5 4 5 4 8 3 1 2 2 4 4 5 0 1 11 17 17 17 17 18 19 19 20 18 16 13 11 9 10 8 13 16 21 20 21 23 25 22 21 20 22
3 1 3 5 3 2 11 3 1 1 1 3 1 3 5 2 2 8 14 14 15 17 18 18 18 18 18 17 15 14 13 12 13 13 16 19 22 23 27 25 24 21 22 23
4 2 2 4 3 0 11 3 1 2 1 1 1 4 4 4 3 7 10 12 13 15 17 20 21 21 20 20 17 15 15 16 15 15 16 19 22 24 27 25 23 24 26 24
4 0 6 7 4 4 6 5 3 4 3 3 1 3 3 4 2 5 5 7 11 14 16 18 20 21 21 20 19 17 16 16 16 16 16 17 20 24 26 27 25 26 26 25
3 2 3 3 2 4 4 4 2 1 2 3 1 2 4 5 4 5 6 9 12 14 16 17 18 21 23 21 19 18 17 15 12 12 14 15 17 22 24 26 27 25 26 25
3 4 1 3 1 1 3 1 1 1 4 3 1 4 3 2 3 5 6 10 13 15 16 17 18 21 22 21 18 16 14 13 13 12 12 13 16 18 22 25 26 22 21 21
2 1 1 2 4 4 2 1 1 1 2 2 4 1 2 3 5 6 6 9 12 14 15 17 19 19 20 19 18 17 16 12 10 9 9 9 10 13 17 20 25 25 17 15
2 0 3 2 1 3 3 4 3 2 1 1 2 4 3 6 7 7 7 9 11 12 14 17 19 16 19 21 19 19 17 15 14 12 8 6 5 4 6 13 16 19 19 15
5 2 3 3 1 1 4 4 3 1 1 6 2 2 3 8 9 8 9 10 12 12 13 15 17 17 17 19 18 17 16 15 15 13 9 6 3 2 7 8 10 14 18 15
6 1 3 3 1 2 4 5 7 6 4 3 8 7 7 7 7 6 9 9 9 10 11 14 15 17 16 16 17 17 15 16 15 14 11 7 5 4 7 12 11 14 9 12
2 2 3 6 9 6 9 10 8 12 11 6 1 5 10 9 10 13 8 7 8 9 9 12 13 15 16 15 17 16 16 15 15 14 12 11 9 6 9 10 14 14 13 12
3 1 1 4 1 2 7 12 12 13 16 16 15 20 13 10 10 12 12 9 8 7 8 10 11 12 14 15 14 16 15 15 14 15 17 17 13 7 8 12 15 13 12 13
4 3 1 4 2 6 6 7 14 8 8 13 8 9 2 3 6 11 13 12 10 7 5 7 7 9 11 13 13 15 15 15 15 16 17 16 15 12 11 8 9 10 12 9
5 3 0 4 5 2 1 2 6 14 8 16 8 10 9 5 5 10 14 13 11 8 6 4 5 7 8 10 11 11 13 13 13 14 14 16 17 21 19 15 15 16 12 16
0 3 2 2 2 8 1 5 7 7 6 19 21 19 11 7 5 14 19 17 13 9 7 5 3 2 4 6 8 9 9 10 10 14 15 17 14 18 19 21 19 17 17 18
3 2 1 2 2 4 1 4 5 3 5 5 23 20 16 10 5 5 7 17 19 15 10 7 5 2 2 5 6 6 7 9 12 15 15 17 14 18 17 19 18 16 16 17
4 3 5 5 4 9 7 8 8 1 2 2 12 14 19 10 12 3 9 10 12 13 12 10 7 4 1 2 3 4 6 7 11 13 13 15 14 15 15 14 15 15 14 15
9 9 5 4 4 8 14 9 7 2 3 3 6 17 23 23 13 12 10 13 14 13 13 11 9 6 3 1 2 2 3 5 8 10 11 11 11 10 11 11 12 12 13 13
5 6 5 10 7 2 31 8 22 6 6 6 5 10 19 23 23 18 15 15 14 13 12 12 11 9 6 3 1 1 2 3 5 7 8 9 10 10 10 9 9 9 10 10
6 8 3 1 5 22 27 31 22 19 22 14 9 9 14 23 24 24 20 17 17 16 14 13 13 12 9 7 5 2 2 3 4 5 5 6 7 7 7 7 7 7 8 9
3 14 5 8 14 19 28 27 32 32 32 31 24 21 16 17 24 24 24 22 19 18 17 16 15 14 13 12 10 7 5 5 5 5 4 4 5 5 5 5 6 6 6 7
13 8 7 9 17 10 12 10 13 22 23 23 32 34 31 24 23 26 26 23 21 21 21 21 18 18 18 17 16 13 11 8 8 8 7 6 5 6 6 6 6 5 5 5
Wind_Direction
32 62 40 19 14 46 8 19 23 49 15 57 69 68 52 45 48 38 33 29 27 21 15 17 351 1 8 322 243 232 229 221 234 256 270 246 226 255 247 244 246 243 235 237
86 51 360 274 11 65 43 2 27 226 13 126 125 99 81 51 48 40 28 24 18 12 12 11 359 357 352 347 324 248 231 229 232 233 248 250 247 254 253 260 247 252 247 233
77 14 332 125 39 20 44 14 337 303 334 71 201 182 199 120 43 37 33 26 18 11 3 359 360 355 342 327 299 286 252 226 233 229 236 240 243 228 233 242 253 252 253 237
66 350 11 38 52 353 294 3 302 283 228 199 269 192 200 270 67 31 22 17 11 6 1 356 353 351 339 318 300 272 266 249 227 230 223 224 233 241 233 244 253 261 245 246
56 5 359 20 0 334 327 327 305 298 190 205 182 260 126 138 215 8 9 7 7 2 356 352 351 347 344 328 308 287 256 245 242 227 225 224 228 241 243 239 240 240 241 247
42 355 332 332 316 308 327 248 191 132 234 231 110 281 144 161 6 349 359 5 3 359 354 351 347 346 343 339 322 300 281 257 241 231 224 224 228 228 236 246 241 246 247 236
346 28 335 343 339 328 4 322 245 207 228 2 43 270 23 133 60 358 347 358 2 1 359 354 350 349 347 346 340 322 300 282 265 245 230 226 224 228 231 239 241 244 242 239
6 172 4 355 55 325 2 1 29 309 325 330 317 260 86 137 98 360 345 348 348 354 354 355 352 348 346 346 346 342 325 299 280 268 248 236 229 229 228 232 239 241 242 244
351 272 333 351 12 332 358 36 353 277 135 263 307 232 164 182 249 326 334 338 345 344 347 351 354 354 352 350 351 351 342 333 316 291 265 250 242 234 231 230 234 242 246 250
133 300 66 327 309 69 343 352 288 30 337 319 319 283 339 193 292 328 333 339 341 342 344 349 352 358 357 354 0 359 351 343 339 323 297 267 251 244 234 234 235 236 247 251
104 205 90 259 37 349 339 335 3 342 314 325 316 81 172 245 304 314 323 328 334 339 343 344 351 359 358 357 5 5 5 2 349 337 331 304 270 244 236 236 236 236 244 243
121 235 289 92 259 321 289 293 295 287 196 250 293 282 172 242 283 294 290 311 327 335 342 349 354 1 1 3 8 10 13 13 10 7 358 346 330 251 224 228 226 223 229 230
165 168 303 158 167 104 266 230 251 79 214 223 238 249 236 263 278 273 275 298 319 332 342 354 357 4 6 8 11 16 23 25 26 23 12 19 7 184 182 176 194 202 207 223
134 146 246 264 268 97 233 233 229 219 245 197 241 297 275 257 246 281 267 287 315 333 342 353 359 6 9 17 16 22 30 35 36 33 20 39 74 153 159 178 178 177 202 232
211 219 198 267 267 256 254 249 222 229 234 229 68 239 268 264 261 280 261 268 304 323 338 350 358 9 15 21 26 29 36 44 50 55 55 60 67 100 153 171 165 163 163 190
191 174 161 275 285 213 268 247 235 242 246 257 265 280 276 290 243 230 218 238 270 299 328 341 353 6 20 25 24 31 39 47 49 61 63 61 59 76 104 131 152 146 143 149
179 157 48 268 329 306 275 232 200 217 220 215 206 229 261 282 242 229 220 242 263 276 296 319 346 6 23 27 37 32 37 49 58 62 60 75 78 84 86 94 116 124 120 111
151 112 105 290 306 291 42 184 182 222 247 217 234 240 217 234 261 252 229 240 254 259 268 299 344 6 22 30 35 39 43 51 58 68 69 73 81 87 81 99 88 101 114 119
202 153 129 295 270 300 202 192 189 185 281 213 223 236 224 220 272 261 237 237 246 254 256 269 294 343 23 36 34 43 56 67 68 77 76 75 71 85 101 100 106 100 100 102
109 82 172 145 242 247 190 153 189 156 278 205 211 229 209 164 230 246 226 232 236 232 231 233 236 259 30 52 32 44 65 78 80 76 75 80 81 86 89 91 94 98 98 96
171 186 208 178 257 280 228 151 143 155 291 191 202 205 182 196 213 206 197 198 196 208 214 220 218 219 206 66 52 41 78 84 87 85 83 81 79 81 84 92 97 96 97 98
176 165 185 140 214 275 161 126 195 240 184 209 215 211 209 213 214 214 208 201 202 205 210 214 217 216 215 130 65 67 96 105 97 92 85 82 85 87 90 90 92 94 95 93
232 202 191 202 207 245 187 205 210 221 235 217 236 237 224 223 219 217 217 214 214 213 214 217 219 219 220 222 219 125 130 119 102 89 79 75 73 72 73 76 83 93 100 106
231 192 232 273 224 231 233 232 239 237 245 248 255 258 235 230 226 224 224 226 225 222 220 219 222 222 220 229 236 232 194 167 143 130 118 107 103 97 97 103 107 110 110 108
176 153 180 257 280 269 264 240 239 245 250 251 248 246 249 243 236 231 230 232 234 231 226 226 227 225 221 222 232 238 232 213 193 180 166 151 135 126 119 119 118 122 125 123
195 186 186 236 212 220 257 252 234 239 252 263 253 247 244 243 243 235 233 231 233 231 228 228 228 225 224 226 226 229 232 230 220 211 205 194 184 176 168 165 157 147 140 137